N515MR KORD-KBUF

Flight info

Callsign N515MR
Flight time N/A
Altitude 19000
Route DUFEE ELX HAAKK DOXXY SOSIC WTEVR DOBIE DKK
Aircraft B58T/L-SDFGRY/C

Departure

Time 2026-04-30 14:29
Airport Chicago O'Hare International Airport (KORD)

Arrival

Time N/A
Airport Buffalo Niagara International Airport (KBUF)
Time Latitude Longitude Altitude Speed Heading
2026-04-30 14:13 41.97270 -87.88231 665 ft 0 kts 90°
2026-04-30 14:25 41.97214 -87.88192 664 ft 5 kts 175°
2026-04-30 14:25 41.97197 -87.88130 664 ft 3 kts 93°
2026-04-30 14:26 41.97196 -87.88110 664 ft 0 kts 93°
2026-04-30 14:26 41.97196 -87.88097 664 ft 6 kts 87°
2026-04-30 14:26 41.97110 -87.88034 664 ft 0 kts 180°
2026-04-30 14:27 41.97090 -87.88035 664 ft 8 kts 178°
2026-04-30 14:27 41.96990 -87.88031 664 ft 19 kts 184°
2026-04-30 14:28 41.96627 -87.88410 662 ft 77 kts 221°
2026-04-30 14:28 41.96119 -87.89005 774 ft 107 kts 220°
2026-04-30 14:28 41.95531 -87.89661 1067 ft 109 kts 216°
2026-04-30 14:28 41.94895 -87.90333 1276 ft 123 kts 220°
2026-04-30 14:29 41.93313 -87.90555 1740 ft 140 kts 142°
2026-04-30 14:29 41.92524 -87.88789 2340 ft 131 kts 102°
2026-04-30 14:30 41.92730 -87.84560 3032 ft 152 kts 42°
2026-04-30 14:31 41.94286 -87.82533 3327 ft 165 kts 40°
2026-04-30 14:31 41.96016 -87.80304 3618 ft 176 kts 40°
2026-04-30 14:31 41.96908 -87.79151 3761 ft 179 kts 40°
2026-04-30 14:32 41.98728 -87.76800 4019 ft 184 kts 40°
2026-04-30 14:32 41.99640 -87.75603 4149 ft 183 kts 41°
2026-04-30 14:32 42.00380 -87.74183 4272 ft 190 kts 63°
2026-04-30 14:33 42.00743 -87.72456 4397 ft 193 kts 75°
2026-04-30 14:33 42.01273 -87.68911 4650 ft 194 kts 74°
2026-04-30 14:33 42.01561 -87.67134 4779 ft 195 kts 73°
2026-04-30 14:34 42.01851 -87.65348 4901 ft 196 kts 73°
2026-04-30 14:34 42.02141 -87.63561 5028 ft 196 kts 73°
2026-04-30 14:34 42.02430 -87.61768 5156 ft 196 kts 73°
2026-04-30 14:34 42.02719 -87.59974 5280 ft 197 kts 73°
2026-04-30 14:35 42.03205 -87.56977 5486 ft 198 kts 73°
2026-04-30 14:35 42.03596 -87.54551 5653 ft 199 kts 73°
2026-04-30 14:35 42.03887 -87.52730 5793 ft 199 kts 73°
2026-04-30 14:36 42.04178 -87.50925 5966 ft 196 kts 73°
2026-04-30 14:36 42.04465 -87.49133 6139 ft 196 kts 73°
2026-04-30 14:36 42.04753 -87.47343 6312 ft 196 kts 72°
2026-04-30 14:36 42.05041 -87.45549 6485 ft 196 kts 72°
2026-04-30 14:37 42.05329 -87.43751 6662 ft 197 kts 72°
2026-04-30 14:37 42.05616 -87.41950 6833 ft 197 kts 72°
2026-04-30 14:37 42.05905 -87.40143 7008 ft 197 kts 72°
2026-04-30 14:37 42.06195 -87.38333 7183 ft 199 kts 72°
2026-04-30 14:38 42.06484 -87.36513 7359 ft 200 kts 72°
2026-04-30 14:38 42.06774 -87.34685 7534 ft 200 kts 72°
2026-04-30 14:38 42.07065 -87.32858 7713 ft 200 kts 72°
2026-04-30 14:38 42.07357 -87.31023 7884 ft 200 kts 72°
2026-04-30 14:39 42.07644 -87.29211 8056 ft 200 kts 72°
2026-04-30 14:39 42.07935 -87.27374 8230 ft 201 kts 71°
2026-04-30 14:39 42.08229 -87.25524 8405 ft 203 kts 71°
2026-04-30 14:40 42.08815 -87.21808 8755 ft 203 kts 71°
2026-04-30 14:40 42.09110 -87.19945 8930 ft 204 kts 71°
2026-04-30 14:40 42.09406 -87.18074 9103 ft 205 kts 71°
2026-04-30 14:40 42.09700 -87.16197 9280 ft 206 kts 71°
2026-04-30 14:41 42.09999 -87.14305 9455 ft 207 kts 71°
2026-04-30 14:41 42.10297 -87.12403 9622 ft 208 kts 71°
2026-04-30 14:41 42.10598 -87.10493 9809 ft 209 kts 70°
2026-04-30 14:41 42.10896 -87.08574 9982 ft 210 kts 71°
2026-04-30 14:42 42.11198 -87.06648 10157 ft 211 kts 71°
2026-04-30 14:42 42.11325 -87.04651 10331 ft 216 kts 81°
2026-04-30 14:42 42.11386 -87.02625 10506 ft 217 kts 80°
2026-04-30 14:42 42.11463 -87.00591 10681 ft 218 kts 80°
2026-04-30 14:43 42.11541 -86.98552 10856 ft 219 kts 80°
2026-04-30 14:43 42.11619 -86.96502 11031 ft 220 kts 79°
2026-04-30 14:43 42.11695 -86.94437 11207 ft 222 kts 80°
2026-04-30 14:43 42.11770 -86.92357 11383 ft 223 kts 80°
2026-04-30 14:44 42.11847 -86.90267 11559 ft 224 kts 79°
2026-04-30 14:44 42.11924 -86.88168 11735 ft 225 kts 79°
2026-04-30 14:44 42.12002 -86.86058 11914 ft 226 kts 79°
2026-04-30 14:44 42.12079 -86.83937 12086 ft 228 kts 79°
2026-04-30 14:45 42.12155 -86.81804 12265 ft 229 kts 79°
2026-04-30 14:45 42.12231 -86.79659 12437 ft 230 kts 79°
2026-04-30 14:45 42.12308 -86.77507 12614 ft 231 kts 79°
2026-04-30 14:45 42.12385 -86.75337 12790 ft 233 kts 79°
2026-04-30 14:46 42.12462 -86.73153 12967 ft 234 kts 79°
2026-04-30 14:46 42.12539 -86.70960 13143 ft 234 kts 80°
2026-04-30 14:46 42.12616 -86.68763 13324 ft 235 kts 80°
2026-04-30 14:46 42.12666 -86.67304 13436 ft 236 kts 80°
2026-04-30 14:47 42.12769 -86.64342 13671 ft 237 kts 80°
2026-04-30 14:47 42.12846 -86.62120 13846 ft 238 kts 80°
2026-04-30 14:47 42.12921 -86.59915 14019 ft 239 kts 81°
2026-04-30 14:47 42.12997 -86.57639 14197 ft 240 kts 81°
2026-04-30 14:48 42.13072 -86.55424 14370 ft 239 kts 81°
2026-04-30 14:48 42.13147 -86.53178 14545 ft 241 kts 81°
2026-04-30 14:48 42.13223 -86.50920 14720 ft 242 kts 81°
2026-04-30 14:48 42.13273 -86.49388 14838 ft 243 kts 81°
2026-04-30 14:49 42.13349 -86.47114 15014 ft 243 kts 81°
2026-04-30 14:49 42.13424 -86.44832 15189 ft 244 kts 81°
2026-04-30 14:49 42.13498 -86.42539 15365 ft 246 kts 81°
2026-04-30 14:49 42.13573 -86.40236 15537 ft 247 kts 81°
2026-04-30 14:50 42.13720 -86.35620 15889 ft 249 kts 82°
2026-04-30 14:50 42.13795 -86.33285 16065 ft 250 kts 82°
2026-04-30 14:51 42.13943 -86.28584 16416 ft 252 kts 82°
2026-04-30 14:51 42.14017 -86.26220 16587 ft 253 kts 82°
2026-04-30 14:51 42.14163 -86.21468 16942 ft 255 kts 82°
2026-04-30 14:52 42.14236 -86.19075 17118 ft 256 kts 82°
2026-04-30 14:52 42.14382 -86.14268 17469 ft 258 kts 83°
2026-04-30 14:52 42.14442 -86.11851 17643 ft 259 kts 86°
2026-04-30 14:53 42.14407 -86.06976 17994 ft 261 kts 86°
2026-04-30 14:53 42.14399 -86.04527 18170 ft 262 kts 86°
2026-04-30 14:54 42.14365 -85.99600 18521 ft 263 kts 86°
2026-04-30 14:54 42.14333 -85.94639 18872 ft 266 kts 86°
2026-04-30 14:55 42.14297 -85.89576 18994 ft 277 kts 87°
2026-04-30 14:55 42.14278 -85.86950 18990 ft 283 kts 87°
2026-04-30 14:55 42.14233 -85.81614 18990 ft 290 kts 87°
2026-04-30 14:56 42.14187 -85.76143 18992 ft 294 kts 87°
2026-04-30 14:56 42.14138 -85.70667 19086 ft 292 kts 87°
2026-04-30 14:57 42.14115 -85.67926 19087 ft 293 kts 87°
2026-04-30 14:57 42.14062 -85.62405 19090 ft 295 kts 88°
2026-04-30 14:58 42.14005 -85.56862 19092 ft 297 kts 88°
2026-04-30 14:58 42.13976 -85.54082 19093 ft 297 kts 88°
2026-04-30 14:58 42.13917 -85.48518 19094 ft 297 kts 88°
2026-04-30 14:59 42.13854 -85.42984 19095 ft 297 kts 88°
2026-04-30 15:00 42.13756 -85.34633 19088 ft 297 kts 88°
2026-04-30 15:00 42.13687 -85.29066 19088 ft 297 kts 88°
2026-04-30 15:01 42.13614 -85.23499 19087 ft 297 kts 88°
2026-04-30 15:01 42.13577 -85.20714 19085 ft 297 kts 88°
2026-04-30 15:01 42.13503 -85.15140 19081 ft 298 kts 88°
2026-04-30 15:02 42.13463 -85.12352 19081 ft 298 kts 88°
2026-04-30 15:02 42.13424 -85.09566 19080 ft 298 kts 88°
2026-04-30 15:03 42.13298 -85.01196 19063 ft 298 kts 88°
2026-04-30 15:03 42.13199 -84.95622 19072 ft 298 kts 89°
2026-04-30 15:04 42.13099 -84.90047 19066 ft 298 kts 89°
2026-04-30 15:04 42.12944 -84.81680 19067 ft 298 kts 89°
2026-04-30 15:05 42.12785 -84.73319 19069 ft 298 kts 89°
2026-04-30 15:06 42.12675 -84.67778 19073 ft 298 kts 89°
2026-04-30 15:06 42.12564 -84.62204 19073 ft 298 kts 89°
2026-04-30 15:07 42.12447 -84.56623 19065 ft 298 kts 89°
2026-04-30 15:07 42.12328 -84.51033 19073 ft 299 kts 89°
2026-04-30 15:08 42.12453 -84.45505 19061 ft 294 kts 76°
2026-04-30 15:08 42.13383 -84.37307 19070 ft 295 kts 77°
2026-04-30 15:09 42.13997 -84.31879 19066 ft 291 kts 77°
2026-04-30 15:09 42.14597 -84.26515 19061 ft 288 kts 77°
2026-04-30 15:10 42.15191 -84.21188 19054 ft 287 kts 77°
2026-04-30 15:11 42.16364 -84.10602 19054 ft 285 kts 77°
2026-04-30 15:11 42.16945 -84.05316 19055 ft 285 kts 77°
2026-04-30 15:12 42.17814 -83.97377 19055 ft 285 kts 77°
2026-04-30 15:13 42.18389 -83.92090 19055 ft 285 kts 77°
2026-04-30 15:14 42.19527 -83.81542 19043 ft 284 kts 77°
2026-04-30 15:14 42.20380 -83.73618 19044 ft 285 kts 78°
2026-04-30 15:16 42.21784 -83.60403 19044 ft 285 kts 78°
2026-04-30 15:17 42.22894 -83.49841 19045 ft 284 kts 78°
2026-04-30 15:18 42.24701 -83.36770 19044 ft 283 kts 76°
2026-04-30 15:19 42.25793 -83.28938 19044 ft 283 kts 76°